Location: Dentlein
(49.1477°N, 10.4231°E)
Time: 03:43:19
(UTC+00:00)

Cosmos 1825 - Pass Details

Date: 18 August 2024
Orbit: 422 x 426 km, 82.5° (Epoch: 09 September)

Event Time Altitude Azimuth Distance (km) Brightness Sun altitude
Rises 01:03:29 0° 1° (N) 2,402 6.6 -24.0°
Reaches altitude 10° 01:05:50 10° 16° (NNE) 1,527 5.6 -23.8°
Maximum altitude 01:08:33 23° 72° (ENE) 954 4.0 -23.6°
Enters shadow 01:09:22 21° 95° (E) 1,017 3.9 -23.5°
